Waarnemingen

Advertentie
Mijn weer
Saarbrücken-Ensheim, Duitsland (10708): temperatuur & dauwpunt: 14.08.2017 04:00:00 - 20.08.2017 04:00:00 (CEST)Saarbrücken-Ensheim, Duitsland (10708): temperatuur 5cm & temperatuur -5cm: 14.08.2017 04:00:00 - 20.08.2017 04:00:00 (CEST)Saarbrücken-Ensheim, Duitsland (10708): temperatuur -20cm & temperatuur -100cm: 14.08.2017 04:00:00 - 20.08.2017 04:00:00 (CEST)Saarbrücken-Ensheim, Duitsland (10708): windsnelheid & windstoten: 14.08.2017 04:00:00 - 20.08.2017 04:00:00 (CEST)Saarbrücken-Ensheim, Duitsland (10708): windrichting: 14.08.2017 04:00:00 - 20.08.2017 04:00:00 (CEST)Saarbrücken-Ensheim, Duitsland (10708): luchtdruk: 14.08.2017 04:00:00 - 20.08.2017 04:00:00 (CEST)Saarbrücken-Ensheim, Duitsland (10708): zicht: 14.08.2017 04:00:00 - 20.08.2017 04:00:00 (CEST)Saarbrücken-Ensheim, Duitsland (10708): Zonneschijnduur: 14.08.2017 04:00:00 - 20.08.2017 04:00:00 (CEST)Saarbrücken-Ensheim, Duitsland (10708): neerslag: 14.08.2017 04:00:00 - 20.08.2017 04:00:00 (CEST)
Datum & Tijd tt [°C] td [°C] tt 5cm [°C] tt -5cm [°C] tt -20cm [°C] tt -100cm [°C] ff [km/u] ff [kn] fx [km/u] fx [kn] dd ppp [hPa] vv [km] sd [min] rr [mm]
20.08.2017 04:00:00 - - - - - - - - - - - - - - -
20.08.2017 03:00:00 12,1 11,0 11,3 15,9 19,4 18,8 4 2 8 4 W 1023,3 35 0 0,0
20.08.2017 02:00:00 11,9 10,8 11,1 15,9 19,8 18,8 5 3 8 4 WZW 1023,3 35 0 0,0
20.08.2017 01:00:00 11,0 10,6 9,4 16,3 20,3 18,8 5 3 8 4 ZZW 1023,2 10 0 0,0
20.08.2017 00:00:00 11,9 11,2 10,2 17,3 20,7 18,8 6 3 8 4 ZW 1023,0 40 0 0,0
19.08.2017 23:00:00 12,9 11,6 11,7 18,3 21,1 18,8 5 3 15 8 WZW 1022,7 10 0 0,0
19.08.2017 22:00:00 13,7 11,9 12,7 19,3 21,6 18,8 13 7 16 9 W 1022,4 10 0 0,0
19.08.2017 21:00:00 13,7 12,5 13,3 20,4 22,0 18,8 7 4 44 24 WNW 1022,0 35 0 0,1
19.08.2017 20:00:00 17,0 10,0 16,7 22,5 22,3 18,8 18 10 26 14 W 1020,9 10 8 0,0
19.08.2017 19:00:00 18,4 10,0 20,6 24,1 22,4 18,8 18 10 31 17 W 1020,4 50 15 0,0
19.08.2017 18:00:00 19,1 9,0 22,1 26,5 22,1 18,8 22 12 35 19 WZW 1020,1 10 52 0,0
19.08.2017 17:00:00 18,8 9,7 23,6 27,1 21,6 18,8 16 9 31 17 W 1020,1 10 51 0,0
19.08.2017 16:00:00 17,9 8,8 21,2 26,3 21,1 18,8 20 11 32 17 W 1020,5 50 40 0,0
19.08.2017 15:00:00 17,8 9,1 21,3 25,6 20,5 18,8 21 11 31 17 W 1020,6 50 34 0,0
19.08.2017 14:00:00 18,7 8,7 24,7 24,8 19,8 18,8 21 12 38 21 W 1020,2 50 56 0,0
19.08.2017 13:00:00 17,8 7,5 22,3 22,7 19,3 18,8 27 15 41 22 W 1020,3 60 60 0,0
19.08.2017 12:00:00 17,3 10,6 21,2 21,0 18,9 18,8 21 11 36 20 W 1019,9 10 54 0,0
19.08.2017 11:00:00 15,3 10,5 16,4 19,6 18,6 18,8 21 11 29 16 W 1020,4 10 48 0,0
19.08.2017 10:00:00 15,1 12,5 16,3 17,8 18,5 18,8 21 11 29 16 W 1020,1 10 57 0,0
19.08.2017 09:00:00 14,1 11,4 13,7 16,2 18,6 18,8 17 9 23 13 W 1019,9 50 60 0,0
19.08.2017 08:00:00 13,2 13,0 12,8 15,3 18,8 18,8 11 6 15 8 WZW 1019,4 2,0 46 0,0
19.08.2017 07:00:00 12,1 11,9 10,4 15,5 19,1 18,7 8 4 13 7 WZW 1019,3 20 0 0,0
19.08.2017 06:00:00 13,1 13,0 11,4 16,2 19,3 18,7 8 4 13 7 W 1019,0 10 0 0,0
19.08.2017 05:00:00 14,2 14,0 13,8 16,8 19,5 18,7 8 4 11 6 WZW 1018,4 10 0 0,0
19.08.2017 04:00:00 14,3 14,0 14,0 17,0 19,7 18,7 5 3 9 5 WZW 1017,7 30 0 0,0
19.08.2017 03:00:00 14,4 13,9 14,0 17,3 19,9 18,7 5 3 15 8 W 1017,7 10 0 0,0
19.08.2017 02:00:00 14,9 14,2 14,3 17,6 20,1 18,7 11 6 16 9 W 1017,9 10 0 0,0
19.08.2017 01:00:00 15,5 15,1 15,2 17,9 20,3 18,7 10 5 22 12 ZW 1017,4 30 0 0,0
19.08.2017 00:00:00 15,7 15,2 15,3 18,1 20,5 18,7 16 9 24 13 ZW 1016,9 10 0 0,0
18.08.2017 23:00:00 15,6 15,3 15,5 18,4 20,8 18,7 13 7 30 16 WZW 1016,8 10 0 0,0
18.08.2017 22:00:00 15,9 15,4 15,7 18,9 21,0 18,7 16 9 24 13 ZW 1016,7 10 0 0,0
18.08.2017 21:00:00 15,9 15,4 15,7 19,5 21,3 18,7 17 9 29 16 WZW 1015,9 40 0 0,0
18.08.2017 20:00:00 16,0 15,5 16,3 19,9 21,6 18,7 15 8 24 13 W 1015,4 10 16 0,0
18.08.2017 19:00:00 15,7 15,4 16,0 20,1 21,9 18,7 15 8 29 15 WZW 1014,4 10 0 2,2
18.08.2017 18:00:00 16,1 15,8 16,2 21,1 22,3 18,7 16 9 24 13 WZW 1015,3 12 0 1,7
18.08.2017 17:00:00 16,4 16,0 16,9 22,0 22,6 18,7 14 8 29 16 W 1014,9 12 0 0,3
18.08.2017 16:00:00 16,6 15,9 16,7 23,7 22,7 18,7 24 13 57 31 W 1014,6 10 0 1,2
18.08.2017 15:00:00 22,5 17,0 22,9 26,5 22,5 18,7 21 11 35 19 ZW 1012,6 10 1 0,0
18.08.2017 14:00:00 22,7 16,7 24,1 27,4 21,9 18,7 21 11 37 20 ZW 1012,9 10 11 0,0
18.08.2017 13:00:00 23,2 17,6 28,2 26,8 21,2 18,7 21 11 38 21 WZW 1013,3 10 38 0,0
18.08.2017 12:00:00 22,2 17,3 26,8 24,0 20,7 18,7 16 9 31 17 ZW 1014,2 50 30 0,0
18.08.2017 11:00:00 21,5 17,8 24,4 22,2 20,5 18,7 16 9 28 15 ZW 1014,9 10 26 0,0
18.08.2017 10:00:00 20,1 17,2 21,7 20,3 20,4 18,7 16 9 24 13 ZZW 1015,2 10 15 0,0
18.08.2017 09:00:00 18,3 16,5 18,5 19,1 20,5 18,6 11 6 21 11 ZW 1015,5 50 1 0,0
18.08.2017 08:00:00 18,0 16,1 17,8 19,0 20,6 18,6 13 7 26 14 ZZW 1016,1 50 0 0,0
18.08.2017 07:00:00 18,2 16,1 17,4 18,9 20,8 18,6 8 4 18 10 ZW 1015,7 10 0 0,0
18.08.2017 06:00:00 18,1 15,7 17,1 19,1 21,0 18,6 9 5 21 11 Z 1015,9 10 0 0,0
18.08.2017 05:00:00 18,7 15,8 18,2 19,4 21,2 18,6 11 6 15 8 ZW 1016,1 50 0 0,0
18.08.2017 04:00:00 18,7 15,8 17,3 19,8 21,4 18,6 11 6 18 10 ZZW 1016,2 10 0 0,0
18.08.2017 03:00:00 19,8 15,9 19,0 20,1 21,7 18,6 11 6 15 8 ZZW 1016,4 10 0 0,0
18.08.2017 02:00:00 20,0 15,4 18,7 20,5 22,0 18,6 10 5 13 7 ZZW 1016,6 50 0 0,0
18.08.2017 01:00:00 19,9 15,5 18,1 21,0 22,2 18,6 8 4 9 5 ZZW 1017,2 10 0 0,0
18.08.2017 00:00:00 20,1 15,5 18,6 21,5 22,5 18,6 2 1 5 3 - 1017,2 10 0 0,0
17.08.2017 23:00:00 19,7 16,4 18,1 22,0 22,9 18,6 4 2 8 4 Z 1017,1 10 0 0,0
17.08.2017 22:00:00 20,4 16,2 18,0 23,1 23,2 18,6 2 1 8 4 - 1017,3 10 0 0,0
17.08.2017 21:00:00 21,2 16,1 20,4 24,2 23,4 18,6 8 4 13 7 NW 1017,0 10 0 0,0
17.08.2017 20:00:00 22,7 15,6 22,7 25,5 23,6 18,6 11 6 21 11 W 1016,6 10 14 0,0
17.08.2017 19:00:00 23,9 15,0 25,1 26,5 23,6 18,6 15 8 26 14 W 1016,7 50 8 0,0
17.08.2017 18:00:00 23,9 15,1 25,4 27,5 23,5 18,6 16 9 32 17 WZW 1017,0 50 7 0,0
17.08.2017 17:00:00 24,7 14,4 27,1 28,4 23,2 18,6 24 13 37 20 WZW 1017,0 10 10 0,0
17.08.2017 16:00:00 24,2 14,0 27,0 29,7 22,6 18,6 24 13 35 19 WZW 1017,2 50 52 0,0
17.08.2017 15:00:00 23,6 13,2 26,5 29,4 21,8 18,6 25 13 38 21 WZW 1017,5 50 48 0,0
17.08.2017 14:00:00 24,2 14,0 29,5 27,5 21,0 18,6 24 13 40 21 ZW 1017,6 10 59 0,0
17.08.2017 13:00:00 22,7 15,4 26,2 25,0 20,5 18,6 28 15 35 19 W 1018,0 10 36 0,0
17.08.2017 12:00:00 22,3 18,3 25,3 23,5 20,0 18,6 16 9 25 13 ZW 1018,3 10 30 0,0
17.08.2017 11:00:00 20,9 18,1 22,6 21,8 19,6 18,6 13 7 21 11 ZW 1018,7 18 11 0,0
17.08.2017 10:00:00 20,7 18,0 21,0 20,6 19,4 18,6 11 6 16 8 ZZW 1018,4 15 38 0,0
17.08.2017 09:00:00 18,7 17,6 18,9 18,6 19,3 18,6 6 3 11 6 Z 1018,6 8 31 0,0
17.08.2017 08:00:00 17,0 17,0 17,0 17,0 19,4 18,6 4 2 5 3 - 1018,6 3,0 26 0,0
17.08.2017 07:00:00 14,8 14,8 12,7 16,6 19,7 18,6 2 1 5 3 - 1019,0 0,5 0 0,0
17.08.2017 06:00:00 14,8 14,8 12,7 17,0 19,9 18,6 2 1 4 2 ONO 1018,7 0,2 0 0,0
17.08.2017 05:00:00 14,9 14,9 12,9 17,3 20,2 18,6 0 0 4 2 N 1018,8 10 0 0,0
17.08.2017 04:00:00 15,3 15,2 13,1 17,8 20,5 18,6 0 0 4 2 N 1019,0 10 0 0,0
17.08.2017 03:00:00 15,9 15,7 14,7 18,4 20,8 18,6 4 2 5 3 O 1019,2 10 0 0,0
17.08.2017 02:00:00 16,2 16,0 14,7 18,8 21,2 18,6 0 0 5 3 N 1019,4 10 0 0,0
17.08.2017 01:00:00 16,6 16,2 14,8 19,4 21,5 18,6 4 2 9 5 O 1019,6 10 0 0,0
17.08.2017 00:00:00 17,1 16,4 15,2 20,2 21,9 18,6 4 2 4 2 NW 1020,0 10 0 0,0
16.08.2017 23:00:00 17,6 16,7 16,4 20,8 22,3 18,6 2 1 4 2 ZZO 1020,4 10 0 0,0
16.08.2017 22:00:00 17,8 16,5 15,5 21,8 22,7 18,6 2 1 4 2 - 1020,2 10 0 0,0
16.08.2017 21:00:00 19,3 16,7 17,1 23,3 23,0 18,6 2 1 5 3 NNO 1019,7 50 0 0,0
16.08.2017 20:00:00 22,1 16,7 19,7 25,1 23,1 18,6 4 2 9 5 WZW 1019,3 60 29 0,0
16.08.2017 19:00:00 23,6 16,3 24,5 26,7 23,0 18,6 5 3 11 6 Z 1019,1 10 52 0,0
16.08.2017 18:00:00 23,8 16,0 26,3 27,0 22,8 18,6 6 3 9 5 W 1019,3 60 30 0,0
16.08.2017 17:00:00 23,0 16,6 24,9 26,9 22,6 18,5 5 3 11 6 ZZW 1019,6 10 0 0,0
16.08.2017 16:00:00 23,5 16,2 26,2 28,0 22,2 18,5 8 4 11 6 ZW 1019,7 10 19 0,0
16.08.2017 15:00:00 23,5 16,3 28,4 28,0 21,6 18,5 9 5 13 7 ZZW 1020,0 60 19 0,0
16.08.2017 14:00:00 23,4 17,0 26,6 27,8 20,9 18,5 4 2 13 7 ZO 1020,2 55 36 0,0
16.08.2017 13:00:00 22,4 15,2 28,4 26,7 20,1 18,5 8 4 13 7 ZZO 1020,5 10 60 0,0
16.08.2017 12:00:00 21,9 17,0 25,8 24,0 19,4 18,5 7 4 12 7 ZZO 1021,0 45 44 0,0
16.08.2017 11:00:00 19,8 15,9 21,5 21,1 19,1 18,5 4 2 9 5 - 1021,7 10 25 0,0
16.08.2017 10:00:00 17,8 16,3 19,0 19,2 18,9 18,5 4 2 8 4 O 1021,8 25 0 0,0
16.08.2017 09:00:00 16,8 16,5 17,5 17,9 18,9 18,5 2 1 5 3 ZZW 1021,8 8 5 0,0
16.08.2017 08:00:00 16,0 16,0 16,1 17,1 19,0 18,5 2 1 8 4 - 1021,7 10 0 0,0
16.08.2017 07:00:00 15,1 15,1 14,2 17,0 19,2 18,5 5 3 8 4 ZO 1021,7 6 0 0,0
16.08.2017 06:00:00 15,3 15,3 14,7 17,3 19,3 18,5 0 0 8 4 N 1021,3 10 0 0,0
16.08.2017 05:00:00 15,6 15,5 15,0 17,6 19,5 18,5 5 3 8 4 ZZW 1021,3 10 0 0,0
16.08.2017 04:00:00 15,9 15,8 15,6 17,7 19,7 18,5 5 3 9 5 WZW 1021,0 10 0 0,0
16.08.2017 03:00:00 16,0 15,9 15,1 17,9 19,9 18,5 5 3 11 6 ZW 1021,0 30 0 0,0
16.08.2017 02:00:00 16,1 15,9 15,5 18,2 20,1 18,5 9 5 18 10 WZW 1020,8 10 0 0,0
16.08.2017 01:00:00 16,6 16,2 16,2 18,7 20,3 18,5 13 7 20 11 Z 1020,3 10 0 0,3
16.08.2017 00:00:00 16,9 16,2 16,4 19,0 20,5 18,5 11 6 16 9 ZW 1020,6 10 0 0,2
15.08.2017 23:00:00 17,2 16,3 16,7 19,4 20,8 18,5 11 6 41 22 W 1020,3 10 0 0,8
15.08.2017 22:00:00 19,9 15,1 17,8 20,2 21,0 18,5 31 17 44 24 W 1019,2 25 0 0,0
15.08.2017 21:00:00 20,0 17,5 18,5 21,1 21,2 18,5 9 5 15 8 WZW 1018,3 10 0 0,0
15.08.2017 20:00:00 20,8 17,5 19,8 22,0 21,3 18,5 9 5 26 14 WZW 1017,7 35 18 0,0
15.08.2017 19:00:00 21,1 17,5 20,5 22,5 21,3 18,5 13 7 18 10 ZW 1017,5 10 1 0,0
15.08.2017 18:00:00 21,7 17,9 21,2 23,1 21,2 18,5 11 6 22 12 WZW 1017,5 35 1 0,0
15.08.2017 17:00:00 21,8 17,6 22,6 23,7 21,0 18,5 17 9 28 15 WZW 1017,7 35 9 0,0
15.08.2017 16:00:00 21,4 18,5 21,6 22,9 20,8 18,5 13 7 22 12 ZW 1017,8 30 2 0,0
15.08.2017 15:00:00 20,2 18,1 20,7 22,3 20,7 18,5 3 1 15 8 ZZW 1017,7 25 2 0,9
15.08.2017 14:00:00 18,4 17,7 18,7 21,7 20,8 18,5 5 3 28 15 ZO 1017,9 20 0 2,1
15.08.2017 13:00:00 19,4 16,4 17,9 23,6 20,5 18,5 26 14 44 24 WZW 1018,2 5 0 0,1
15.08.2017 12:00:00 23,5 15,9 26,1 24,1 20,0 18,5 14 7 26 14 ZW 1016,4 40 7 0,0
15.08.2017 11:00:00 23,0 14,9 25,5 22,9 19,5 18,5 19 11 31 17 ZW 1016,2 40 54 0,0
15.08.2017 10:00:00 22,0 14,5 22,7 20,6 19,3 18,5 18 10 34 18 ZZW 1016,4 10 58 0,0
15.08.2017 09:00:00 21,5 14,5 20,7 18,7 19,2 18,5 11 6 22 12 Z 1016,3 35 60 0,0
15.08.2017 08:00:00 20,2 16,3 17,5 17,4 19,4 18,5 10 6 15 8 ZO 1015,9 35 55 0,0
15.08.2017 07:00:00 16,4 15,7 14,7 17,0 19,6 18,5 5 3 9 5 O 1016,7 10 0 0,0
15.08.2017 06:00:00 15,7 15,2 14,0 17,2 19,9 18,5 8 4 9 5 O 1016,5 35 0 0,0
15.08.2017 05:00:00 15,7 15,0 14,0 17,5 20,1 18,5 8 4 9 5 ONO 1016,8 10 0 0,0
15.08.2017 04:00:00 16,0 15,2 13,9 17,9 20,5 18,5 5 3 9 5 ONO 1016,7 10 0 0,0
15.08.2017 03:00:00 16,5 15,2 13,9 18,4 20,8 18,5 8 4 9 5 ONO 1016,7 10 0 0,0
15.08.2017 02:00:00 17,0 15,5 14,0 19,0 21,2 18,5 8 4 9 5 O 1017,0 10 0 0,0
15.08.2017 01:00:00 17,8 15,3 14,4 19,7 21,6 18,5 8 4 8 4 O 1017,2 10 0 0,0
15.08.2017 00:00:00 17,6 15,4 14,3 20,5 22,0 18,5 7 4 9 5 O 1017,5 40 0 0,0
14.08.2017 23:00:00 19,2 16,0 15,1 21,6 22,5 18,5 4 2 9 5 O 1017,4 10 0 0,0
14.08.2017 22:00:00 19,6 15,9 16,0 23,0 22,9 18,5 5 3 8 4 O 1017,1 10 0 0,0
14.08.2017 21:00:00 21,2 16,1 17,7 24,7 23,1 18,5 4 2 8 4 O 1016,7 10 39 0,0
14.08.2017 20:00:00 24,5 15,4 22,8 26,9 23,2 18,5 8 4 15 8 Z 1016,1 10 60 0,0
14.08.2017 19:00:00 25,2 14,7 28,0 28,6 23,0 18,5 9 5 21 11 ZZO 1016,1 10 57 0,0
14.08.2017 18:00:00 26,0 14,6 30,3 29,8 22,5 18,5 11 6 22 12 ZO 1016,3 10 51 0,0
14.08.2017 17:00:00 26,9 15,5 34,8 29,9 21,9 18,5 9 5 22 12 ZO 1016,4 10 51 0,0
14.08.2017 16:00:00 25,2 14,9 29,5 29,2 21,3 18,5 5 3 18 10 - 1017,0 10 43 0,0
14.08.2017 15:00:00 24,8 16,2 32,0 27,7 20,6 18,6 5 3 16 9 Z 1017,5 10 34 0,0
14.08.2017 14:00:00 23,4 16,7 26,0 27,5 19,8 18,6 5 3 16 9 Z 1018,1 10 28 0,0
14.08.2017 13:00:00 24,2 16,4 32,3 26,3 18,9 18,6 9 5 16 9 OZO 1018,4 10 59 0,0
14.08.2017 12:00:00 22,0 16,5 27,6 23,2 18,2 18,6 5 3 17 9 - 1018,8 10 60 0,0
14.08.2017 11:00:00 20,6 15,7 24,5 20,6 17,7 18,6 9 5 18 10 O 1019,2 45 60 0,0
14.08.2017 10:00:00 18,9 15,2 21,4 17,9 17,4 18,6 11 6 16 9 O 1019,4 10 60 0,0
14.08.2017 09:00:00 15,7 14,2 15,4 16,1 17,4 18,6 8 4 17 9 O 1020,0 40 22 0,0
14.08.2017 08:00:00 14,6 13,1 14,2 15,3 17,5 18,6 11 6 16 9 ONO 1020,1 10 4 0,0
14.08.2017 07:00:00 13,1 12,5 12,4 14,9 17,6 18,6 5 3 15 8 O 1020,4 10 0 0,0
14.08.2017 06:00:00 12,7 12,4 11,1 15,0 17,8 18,6 4 2 16 9 ONO 1020,4 40 0 0,0
14.08.2017 05:00:00 13,2 12,9 12,1 15,3 18,0 18,6 8 4 9 5 ONO 1020,5 10 0 0,0
14.08.2017 04:00:00 13,0 12,7 12,5 15,5 18,2 18,6 4 2 9 5 NO 1020,9 10 0 0,0

tt = temperatuur
td = dauwpunt
tt 5cm = temperatuur 5cm
tt -5cm = temperatuur -5cm
tt -20cm = temperatuur -20cm
tt -100cm = temperatuur -100cm
ff = windsnelheid
fx = windstoten
dd = windrichting
ppp = luchtdruk
vv = zicht
sd = Zonneschijnduur
rr = neerslag

Weerstations in de omgeving